星链-5964 (STARLINK-5964 )

导读

STARLINK-5964是美国太空探索技术公司Starlink星链互联网星座中的一颗卫星,于2023年3月24日发射入轨。星链星座旨在为全球用户提供低延迟、高速率的卫星互联网服务,该卫星属于星链组网进程中的常规发射任务,补充完善星座覆盖能力,助力全球互联网络布局推进。

基本信息
目录编号:
56009
目录名称:
STARLINK-5964
国际标识:
2023-042Z
轨道中心:
EARTH
卫星名称:
星链-5964
卫星全名:
星链-5964 (STARLINK-5964 )
卫星状态:
在轨 (已飞行1178 天)
发射日期:
2023-03-24 UTC
国别 :
美国 (US)
星等 :
--
轨道信息
数据来源 国际轨道数据
星历时间: 2026-06-14T05:38:30+0800
1天前
查看轨道信息
半长轴: 6861.198km
偏心率: 0.0001534
轨道倾角: 42.999°
近地点辐角 280.425°
升交点赤经 239.679°
平近点角 79.643°
近地点: 482.008km
远地点: 484.114km
周期: 94.267分钟
每日圈数: 15.275762
详细信息
固有亮度:
5
最大亮度:
2.5
卫星平台:
Starlink v1.5
覆盖范围:
全球
运营商:
太空探索技术公司
运营商所在国:
美国
制造商(研发单位):
太空探索技术公司
制造商所在国:
美国
使用方式:
暂无
卫星简介
星链(Starlink)计划是由太空探索技术公司(SpaceX)提出的一个巨型低轨卫星互联网星座项目,计划在2019年至2024年间在太空搭建由约1.2万颗卫星组成的“星链”网络,其中1584颗将部署在地球上空550千米处的近地轨道,并从2020年开始工作。该卫星仍在工作。
2D轨道图
3D轨道图
轨道高度分析图
轨道倾角分析图
轨道综合分析图
查看轨道综合分析图